Powrót do katalogu

KIKU 5

ETS 5

AktywnyNaukaGEO
NORAD 18316·PAYLOAD·🇯🇵 Japan

Wystrzelony Aug 27, 1987 z Tanegashima Space Center

Loading…

TLE

ŚwieżeSource: Space-Track

Epoka: Sep 14, 2026, 00:01 UTC

1 18316U 87070A   26257.00129642 -.00000255  00000-0  00000-0 0  9990
2 18316  12.6980 334.6939 0001920  80.7380 279.9667  0.99336966129720

Śledź KIKU 5 w czasie rzeczywistym z AllMySat

Download on the App Store